Simultaneous Nadir Overpasses (SNOs) Predictions

Prediction of SNOs between NOAA-19 and NPP Satellite Orbit:

Table of predicted SNOs for the next 14.0 days since TLE Epoch: 11/27/2015
Index Date (NOAA-19) Time (NOAA-19) Lat,Lon (NOAA-19) SZA (NOAA-19 ) Date (NPP) Time (NPP) Lat,Lon (NPP) SZA (NPP ) Distance(km) Time Diff (sec)
1 12/02/2015 21:45:15 81.03, 160.41 106.13 12/02/2015 21:46:28 81.04, 160.37 106.11 0.73 73
2 12/02/2015 22:36:19 -81.03, -32.19 73.89 12/02/2015 22:37:13 -81.03, -32.25 73.90 1.05 54
3 12/02/2015 23:27:17 81.03, 135.03 106.13 12/02/2015 23:27:58 81.04, 134.95 106.12 1.58 41
4 12/03/2015 00:18:21 -81.03, -57.56 73.89 12/03/2015 00:18:43 -81.04, -57.67 73.89 1.99 22
5 12/03/2015 01:09:19 81.03, 109.66 106.12 12/03/2015 01:09:28 81.04, 109.53 106.14 2.45 9
6 12/03/2015</
